Regional Weather Roundup
Issued by NWS

Home | Current Version | Previous Version | Graphics & Text | Print | Product List | Glossary On
Versions: 1 2 3 4 5 6 7 8 9 10 11 12 13 14 15 16 17 18 19 20 21 22 23 24 25 26 27 28 29 30 31 32 33 34 35 36 37 38 39 40 41 42 43 44 45 46 47 48 49 50
000
ASUS43 KDTX 050610
RWRMI
MICHIGAN HOURLY REGIONAL WEATHER ROUNDUP
NATIONAL WEATHER SERVICE DETROIT/PONTIAC MI
100 AM EST THU MAR 05 2015

NOTE: "FAIR" INDICATES FEW OR NO CLOUDS BELOW 12,000 FEET WITH NO
SIGNIFICANT WEATHER AND/OR OBSTRUCTION TO VISIBILITY.

MIZ047>049-052>055-059>063-066>070-074>076-081>083-050700-
SOUTHEAST LOWER MICHIGAN

CITY           SKY/WX    TMP DP  RH WIND       PRES   REMARKS
ADRIAN         CLOUDY    15  -1  49 N13       30.28R
6HR MIN TEMP:  15; 6HR MAX TEMP:  22;

ALMA           PTCLDY     6  -3  65 N5        30.29R
ANN ARBOR      CLOUDY    15  -1  49 N15       30.26R WCI   0
BAD AXE        PTCLDY     8   0  70 N13       30.26R WCI  -8
DETROIT CITY   CLOUDY    18  -2  41 N12       30.26R
6HR MIN TEMP:  18; 6HR MAX TEMP:  28;

DETROIT        CLOUDY    16   0  49 NW12G23   30.28R
6HR MIN TEMP:  16; 6HR MAX TEMP:  25;

FLINT          MOCLDY    12   1  61 NW10      30.26R WCI  -1
6HR MIN TEMP:  12; 6HR MAX TEMP:  20;

GROSSE ILE     CLOUDY    18  -2  41 NW15G21   30.27R
HILLSDALE      CLOUDY    14  -1  51 N10       30.24R
HOWELL         CLOUDY    12   0  59 NW7       30.25R
6HR MIN TEMP:  12; 6HR MAX TEMP:  19;


CITY           SKY/WX    TMP DP  RH WIND       PRES   REMARKS
JACKSON        MOCLDY    13  -2  51 NW10      30.25R WCI   0
6HR MIN TEMP:  13; 6HR MAX TEMP:  18;

LAMBERTVILLE   CLOUDY    19   1  45 NW7       30.29R
LANSING        MOCLDY    10  -3  55 NW8       30.27S
6HR MIN TEMP:  10; 6HR MAX TEMP:  17;

LAPEER         NOT AVBL
MASON          MOCLDY    12  -1  54 NW9G21    30.26R
MONROE         CLOUDY    16   1  53 N12       30.26R
MT. CLEMENS    CLOUDY    15  -1  48 NW13      30.23R
6HR MIN TEMP:  15; 6HR MAX TEMP:  27;

PONTIAC        CLOUDY    13   0  56 NW14      30.23R WCI  -2
6HR MIN TEMP:  13; 6HR MAX TEMP:  22;

PORT HOPE        N/A      9  -2  61 NW16G23   30.25R WCI  -8
6HR MIN TEMP:   9; 6HR MAX TEMP:  22;

PORT HURON     CLOUDY    14   1  57 NW10      30.24S
TRI CITIES     CLEAR      9  -1  64 N12       30.30R WCI  -6
6HR MIN TEMP:   9; 6HR MAX TEMP:  19;

YPSILANTI      CLOUDY    18  -1  43 N20       30.27R
6HR MIN TEMP:  18; 6HR MAX TEMP:  26;

$$
MIZ043>046-050>051-056>058-064>065-071>073-077>080-050700-
SOUTHWEST LOWER MICHIGAN

CITY           SKY/WX    TMP DP  RH WIND       PRES   REMARKS
BATTLE CREEK   PTCLDY    13  -2  51 N9        30.27R
6HR MIN TEMP:  13; 6HR MAX TEMP:  18;

BENTON HARBOR  PTCLDY    15   6  67 VRB6      30.30S
6HR MIN TEMP:  15; 6HR MAX TEMP:  18;

BIG RAPIDS     PTCLDY     5  -1  76 N3        30.27R
6HR MIN TEMP:   3; 6HR MAX TEMP:  14;

COLDWATER      MOCLDY    14  -1  51 N10G16    30.26S
6HR MIN TEMP:  14; 6HR MAX TEMP:  18;

HOLLAND        MOCLDY    15   2  56 NW5       30.32R
6HR MIN TEMP:  15; 6HR MAX TEMP:  18;

GRAND RAPIDS   CLEAR     10  -3  55 NW8       30.29R
6HR MIN TEMP:  10; 6HR MAX TEMP:  16;

KALAMAZOO      PTCLDY    13   0  56 N10       30.29R WCI   0
6HR MIN TEMP:  13; 6HR MAX TEMP:  18;

MARSHALL       MOCLDY    12  -3  50 NW5       30.26R
MUSKEGON       PTCLDY    12   1  61 N6        30.32R
6HR MIN TEMP:  12; 6HR MAX TEMP:  17;

$$
MIZ016>042-050700-
NORTHERN LOWER MICHIGAN

CITY           SKY/WX    TMP DP  RH WIND       PRES   REMARKS
ALPENA         CLEAR      0  -8  69 W6        30.27R
6HR MIN TEMP:   0; 6HR MAX TEMP:  11; 6HR PCP: TRACE;

BEAVER ISLAND  CLEAR      1  -7  70 W6        30.29R
6HR MIN TEMP:   1; 6HR MAX TEMP:   5;

BELLAIRE       CLEAR     -6 -10  83 CALM      30.31S
6HR MIN TEMP:  -8; 6HR MAX TEMP:  11;

CADILLAC       CLEAR     -3  -7  85 CALM      30.23R
CHARLEVOIX     CLEAR      1  -6  69 CALM      30.32R
FRANKFORT      CLOUDY    10  -2  60 NW6       30.31R
GAYLORD        CLEAR     -2 -10  69 CALM      30.21R
6HR MIN TEMP:  -2; 6HR MAX TEMP:   8; 6HR PCP: TRACE;

GRAYLING       CLEAR    -12 -17  76 CALM      30.26R
6HR MIN TEMP: -12; 6HR MAX TEMP:  10;

HARBOR SPRINGS CLEAR      1  -9  63 W6        30.27S
HOUGHTON LAKE    N/A     -3  -9  75 CALM      30.26R
6HR MIN TEMP:  -4; 6HR MAX TEMP:  10; 6HR PCP: TRACE;

MANISTEE       CLOUDY    10   1  67 NE7       30.30R
OSCODA         PTCLDY     2  -7  64 NW6       30.29R
PELLSTON       CLEAR     -6 -11  79 W5        30.28R
6HR MIN TEMP: -10; 6HR MAX TEMP:   7;

TRAVERSE CITY  CLOUDY     1  -4  79 CALM      30.30S
6HR MIN TEMP:   0; 6HR MAX TEMP:  13; 6HR PCP: TRACE;

$$
MIZ007>008-015-050700-
EASTERN UPPER MICHIGAN

CITY           SKY/WX    TMP DP  RH WIND       PRES   REMARKS
KINROSS        PTCLDY    -8  -8 100 W6        30.24R
6HR MIN TEMP:  -8; 6HR MAX TEMP:   1;

MACKINAC ISLAN PTCLDY    -2  -6  81 W10       30.26R WCI -19
6HR MIN TEMP:  -2; 6HR MAX TEMP:   5;

NEWBERRY       PTCLDY    -5  -7  93 SW7       30.23S
S. S. MARIE    PTCLDY    -2  -8  76 W8        30.23F
6HR MIN TEMP:  -4; 6HR MAX TEMP:   2; 6HR PCP: TRACE;

$$
MIZ004>006-011>014-085-050700-
CENTRAL UPPER MICHIGAN

CITY           SKY/WX    TMP DP  RH WIND       PRES   REMARKS
MANISTIQUE     CLEAR     -6 -12  75 W6        30.28R
6HR MIN TEMP:  -6; 6HR MAX TEMP:   5;

ESCANABA       CLEAR     -4  -6  92 W5        30.32R
6HR MIN TEMP:  -6; 6HR MAX TEMP:   9;

MENOMINEE      CLEAR      0 -11  60 CALM      30.32F
6HR MIN TEMP:   0; 6HR MAX TEMP:  10;

SAWYER-GWINN   CLEAR     -5 -11  77 NW8       30.23R
6HR MIN TEMP:  -5; 6HR MAX TEMP:   3;

$$
MIZ001>003-009>011-084-050700-
WESTERN UPPER MICHIGAN

CITY           SKY/WX    TMP DP  RH WIND       PRES   REMARKS
IRON MOUNTAIN  CLEAR     -7 -16  65 NW5       30.26R
6HR MIN TEMP:  -9; 6HR MAX TEMP:   4;

HOUGHTON         N/A     -9 -14  78 NW6       30.26R
6HR MIN TEMP: -11; 6HR MAX TEMP:   1; 6HR PCP: TRACE;

COPPER HARBOR    N/A      3  -6  66 NW5       30.28R
6HR MIN TEMP:   3; 6HR MAX TEMP:   5;

IRONWOOD       MOCLDY    -2  -8  78 W9        30.27S
6HR MIN TEMP:  -2; 6HR MAX TEMP:   1;

$$

ABBREVIATIONS USED IN REMARKS
   TC - TEMPERATURE IN CELSIUS
  WCI - WIND CHILL INDEX
   HX - HEAT INDEX
  VSB - VISIBILITY




USA.gov is the U.S. government's official web portal to all federal, state and local government web resources and services.